Johnstown, PA

8:53 PM EDT on May 26, 2017 (GMT -0400)
Johnstown-Cambria County

Weather History for KJST - May, 2012

Change the Weather History Date:

Friday, May 4, 2012

  Actual Average Record
Temperature  
Mean Temperature 69 °F 54 °F  
Max Temperature 79 °F 63 °F 91 °F (1928)
Min Temperature 60 °F 44 °F 27 °F (1957)
Degree Days  
Heating Degree Days 0 12  
Month to date heating degree days 49  
Since 1 July heating degree days 6380  
Cooling Degree Days 4 0  
Month to date cooling degree days 0  
Year to date cooling degree days 5  
Growing Degree Days 19 (Base 50)    
Moisture  
Dew Point 57 °F    
Average Humidity 69    
Maximum Humidity 90    
Minimum Humidity 40    
Precipitation  
Precipitation 0.00 in 0.13 in 0.99 in (1921)
Month to date precipitation 0.47  
Year to date precipitation 12.58  
Sea Level Pressure  
Sea Level Pressure 29.99 in    
Wind  
Wind Speed 7 mph (WNW)    
Max Wind Speed 15 mph    
Max Gust Speed 23 mph    
Visibility 10 miles    
Events Rain , Thunderstorm    
T = Trace of Precipitation, MM = Missing Value Source: NWS Daily Summary

Daily Weather History Graph

Daily Weather History Graph

Search for Another Location

Airport or City:

Trip Planner

Search our weather history database for the weather conditions in past years. The results will help you decide how hot, cold, wet, or windy it might be!

Date:

Astronomy

May. 04, 2012 Rise Set
Actual Time 6:10 AM EDT 8:14 PM EDT
Civil Twilight 5:40 AM EDT 8:44 PM EDT
Nautical Twilight 5:04 AM EDT 9:20 PM EDT
Astronomical Twilight 4:24 AM EDT 10:00 PM EDT
Moon 6:50 PM EDT (5/4) 4:50 AM EDT (5/4)
Length of Visible Light 15h 03m
Length of Day
14h 03m
Waxing Gibbous, 97% of the Moon is Illuminated
May 4
Waxing Gibbous
May 5
Full
May 12
Last Quarter
May 20
New
May 28
First Quarter

Hourly Weather History & Observations

Time (EDT) Temp. Dew Point Humidity Pressure Visibility Wind Dir Wind Speed Gust Speed Precip Events Conditions
12:54 AM 66.9 °F 57.0 °F 70% 30.01 in 10.0 mi WSW 5.8 mph - N/A   Clear
1:54 AM 66.9 °F 57.0 °F 70% 29.99 in 10.0 mi SW 5.8 mph - N/A   Clear
2:54 AM 64.9 °F 57.9 °F 78% 29.99 in 10.0 mi WSW 5.8 mph - N/A   Clear
3:54 AM 66.0 °F 59.0 °F 78% 29.98 in 10.0 mi West 6.9 mph - N/A   Mostly Cloudy
4:54 AM 64.0 °F 59.0 °F 84% 29.99 in 10.0 mi SW 3.5 mph - N/A   Clear
5:54 AM 64.0 °F 60.1 °F 87% 30.00 in 10.0 mi West 8.1 mph - N/A   Clear
6:54 AM 64.0 °F 60.1 °F 87% 30.02 in 9.0 mi WNW 3.5 mph - N/A   Mostly Cloudy
7:26 AM 64.4 °F 60.8 °F 88% 30.06 in 9.0 mi NW 3.5 mph - N/A   Scattered Clouds
7:54 AM 66.0 °F 59.0 °F 78% 30.01 in 10.0 mi Calm Calm - N/A   Clear
8:54 AM 66.9 °F 61.0 °F 81% 30.02 in 10.0 mi SW 6.9 mph - N/A   Clear
9:54 AM 71.1 °F 62.1 °F 73% 30.03 in 10.0 mi WSW 12.7 mph 18.4 mph N/A   Clear
10:54 AM 72.0 °F 59.0 °F 64% 30.02 in 10.0 mi West 15.0 mph 20.7 mph N/A   Scattered Clouds
11:54 AM 71.1 °F 59.0 °F 66% 30.02 in 10.0 mi West 10.4 mph 23.0 mph N/A   Mostly Cloudy
12:29 PM 71.6 °F 60.8 °F 69% 30.06 in 10.0 mi WSW 13.8 mph 20.7 mph N/A   Mostly Cloudy
12:44 PM 73.4 °F 59.0 °F 61% 30.05 in 10.0 mi West 12.7 mph 18.4 mph N/A   Scattered Clouds
12:54 PM 73.0 °F 59.0 °F 61% 30.01 in 10.0 mi WSW 12.7 mph - N/A   Mostly Cloudy
1:54 PM 75.0 °F 55.9 °F 51% 29.98 in 10.0 mi WNW 5.8 mph - N/A   Partly Cloudy
2:54 PM 78.1 °F 53.1 °F 42% 29.94 in 10.0 mi West 8.1 mph - N/A   Partly Cloudy
3:54 PM 78.1 °F 54.0 °F 43% 29.92 in 10.0 mi WNW 9.2 mph - N/A   Mostly Cloudy
4:54 PM 77.0 °F 51.1 °F 40% 29.92 in 10.0 mi West 10.4 mph - N/A   Mostly Cloudy
5:54 PM 75.0 °F 55.0 °F 50% 29.91 in 10.0 mi WNW 10.4 mph - N/A   Clear
6:54 PM 73.9 °F 53.1 °F 48% 29.91 in 10.0 mi WNW 11.5 mph - N/A   Clear
7:54 PM 69.8 °F 55.4 °F 60% 29.97 in 10.0 mi West 8.1 mph - N/A   Scattered Clouds
8:14 PM 69.8 °F 55.4 °F 60% 29.98 in 10.0 mi NW 6.9 mph - N/A Thunderstorm Mostly Cloudy
8:29 PM 66.2 °F 55.4 °F 68% 29.99 in 10.0 mi North 11.5 mph - N/A   Mostly Cloudy
8:37 PM 66.2 °F 55.4 °F 68% 29.99 in 10.0 mi North 5.8 mph - N/A Thunderstorm Overcast
8:52 PM 64.4 °F 55.4 °F 73% 29.99 in 10.0 mi North 8.1 mph - N/A   Mostly Cloudy
8:54 PM 64.9 °F 55.9 °F 73% 29.96 in 10.0 mi North 8.1 mph - 0.00 in Rain Light Rain
9:54 PM 63.0 °F 57.0 °F 81% 29.96 in 10.0 mi Calm Calm - 0.00 in   Partly Cloudy
10:54 PM 62.1 °F 57.0 °F 84% 29.96 in 10.0 mi East 4.6 mph - N/A   Mostly Cloudy
11:33 PM 60.8 °F 57.2 °F 88% 30.00 in 10.0 mi ENE 4.6 mph - N/A   Mostly Cloudy
11:54 PM 61.0 °F 57.9 °F 90% 29.96 in 10.0 mi Calm Calm - N/A   Overcast